User: anonymous   Login
Location: Muenchen
(48.1800°N, 11.5800°E)
Time: 21:16:57
(UTC+02:00)
Language:

Cosmos 2233 Rocket - Orbit

View from above orbital plane
View from above orbital plane
View from above satellite
View from above satellite

Ground track
Ground track

The orbit data is extracted from the following two-line orbital elements,

1 22488U 93008B   17263.93396578 +.00000023 +00000-0 +78567-5 0  9996
2 22488 082.9467 007.1806 0024412 319.0718 177.8795 13.77715915237154
Epoch (UTC): 20 September 2017 22:24:54
Eccentricity: 0.0024412
inclination: 82.9467°
perigee height: 954 km
apogee height: 990 km
right ascension of ascending node: 7.1806°
argument of perigee: 319.0718°
revolutions per day: 13.77715915
mean anomaly at epoch: 177.8795°
orbit number at epoch: 23715

The dashed part of the orbit path shows where the satellite is in the earth's shadow,  

DLR